• Join FlightAware (Why Join?)
  • Login
  • US Flag 
08:55AM EST


 

Airport Tracker/Info


-or-


 

Live Flight TrackerFlight Track Log ✈ N665LF ✈ 04-May-2013 ✈ KTEB - KBED

Flight Track Log - Related Links

Times and Time Zones

All times are in EDT time to prevent confusion due to time zone crossing. See the N665LF flight status page for this flight to view local times or setup timezone preferences in your user account.

Time Position Orientation Groundspeed Altitude Reporting Facility
EDT Latitude Longitude Course Direction KTS MPH feet Rate Location/Type
12:04PM 40.8833 -74.0500 47° Northeast 132 152 1,200  Level New York TRACON
12:05PM 40.9167 -74.0667 339° North 143 165 2,500 1,150 Climbing New York TRACON
12:06PM 40.9333 -74.1000 304° West 148 170 3,500 950 Climbing New York TRACON
12:07PM 40.9667 -74.1500 311° West 164 189 4,400 850 Climbing New York TRACON
12:08PM 41.0000 -74.1333 21° North 150 173 5,200 700 Climbing New York TRACON
12:09PM 41.0500 -74.1333 360° North 157 181 5,800 450 Climbing New York TRACON
12:10PM 40.8636 -74.0418 47° Northeast  Level FlightAware Approximate
12:10PM 41.1000 -74.1333 360° North 166 191 6,100  Level New York TRACON
12:11PM 41.1500 -74.1333 360° North 184 212 6,200 400 Climbing New York TRACON
12:12PM 41.1500 -74.0667 90° East 146 168 6,900 600 Climbing New York TRACON
12:13PM 41.1667 -74.0167 66° East 150 173 7,400 500 Climbing New York TRACON
12:15PM 41.1958 -73.9584 56° Northeast  Level Estimated
12:15PM 41.2000 -73.9167 56° Northeast 150 173 8,400  Level New York TRACON
12:16PM 41.2000 -73.8667 90° East 149 171 8,900 368 Climbing New York TRACON
12:17PM 41.2167 -73.8167 66° East 160 184 9,100 105 Climbing New York TRACON
12:18PM 41.2333 -73.7500 72° East 176 203 9,100  Level New York TRACON
12:19PM 41.2500 -73.7000 66° East 172 198 9,100  Level New York TRACON
12:20PM 41.2667 -73.6333 72° East 173 199 9,100  Level New York TRACON
12:21PM 41.2833 -73.5833 66° East 172 198 9,100  Level New York TRACON
12:22PM 41.3000 -73.5167 72° East 170 196 9,100  Level New York TRACON
12:23PM 41.3167 -73.4667 66° East 165 190 9,100  Level New York TRACON
12:24PM 41.3500 -73.4000 56° Northeast 169 194 9,100 -50 Level New York TRACON
12:25PM 41.3667 -73.3500 66° East 171 197 9,000  Descending New York TRACON
12:26PM 41.3822 -73.2867 72° East 172 198 9,100 48 Climbing Boston Center
12:27PM 41.4014 -73.2344 64° Northeast 172 198 9,100  Level Boston Center
12:28PM 41.4308 -73.1850 52° Northeast 173 199 9,100  Level Boston Center
12:29PM 41.4647 -73.1353 48° Northeast 172 198 9,100  Level Boston Center
12:30PM 41.4919 -73.0886 52° Northeast 173 199 9,100  Level Boston Center
12:31PM 41.5278 -73.0392 46° Northeast 172 198 9,100  Level Boston Center
12:32PM 41.5614 -72.9867 49° Northeast 172 198 9,100  Level Boston Center
12:33PM 41.5928 -72.9369 50° Northeast 173 199 9,100  Level Boston Center
12:34PM 41.6242 -72.8900 48° Northeast 172 198 9,100  Level Boston Center
12:35PM 41.6556 -72.8458 46° Northeast 173 199 9,100  Level Boston Center
12:36PM 41.6869 -72.7958 50° Northeast 175 201 9,100  Level Boston Center
12:38PM 41.7228 -72.7406 49° Northeast 176 203 9,100  Level Boston Center
12:38PM 41.7519 -72.6989 47° Northeast 175 201 9,100  Level Boston Center
12:40PM 41.7875 -72.6433 49° Northeast 172 198 9,100  Level Boston Center
12:40PM 41.8147 -72.5989 51° Northeast 171 197 9,100  Level Boston Center
12:42PM 41.8481 -72.5489 48° Northeast 174 200 9,100  Level Boston Center
12:42PM 41.8772 -72.5042 49° Northeast 173 199 9,100  Level Boston Center
12:43PM 41.9044 -72.4597 51° Northeast 172 198 9,100  Level Boston Center
12:44PM 41.9397 -72.4011 51° Northeast 173 199 9,100  Level Boston Center
12:45PM 41.9669 -72.3592 49° Northeast 173 199 9,100  Level Boston Center
12:46PM 42.0003 -72.3089 48° Northeast 172 198 9,100 -246 Level Boston Center
12:47PM 42.0314 -72.2583 50° Northeast 175 201 8,600 -496 Descending Boston Center
12:48PM 42.0667 -72.2081 47° Northeast 180 207 8,100 -496 Descending Boston Center
12:49PM 42.1000 -72.1547 50° Northeast 180 207 7,600 -492 Descending Boston Center
12:50PM 42.1311 -72.1069 49° Northeast 179 206 7,100 -492 Descending Boston Center
12:51PM 42.1622 -72.0564 50° Northeast 176 203 6,600 -492 Descending Boston Center
12:52PM 42.1975 -72.0058 47° Northeast 173 199 6,100 -575 Descending Boston Center
12:54PM 42.2408 -71.9353 50° Northeast 172 198 5,200 -574 Descending Boston Center
12:54PM 42.2553 -71.9128 49° Northeast 170 196 5,000 -66 Descending Boston Center
12:57PM 42.3333 -71.7833 51° Northeast 165 190 5,000  Level KA90
12:58PM 42.3667 -71.7333 48° Northeast 163 188 5,000  Level KA90
12:59PM 42.3833 -71.6833 66° East 160 184 5,000 -252 Level KA90
01:00PM 42.4167 -71.6500 36° Northeast 145 167 4,500 -492 Descending KA90
01:01PM 42.4500 -71.6000 48° Northeast 154 177 4,000 -252 Descending KA90
01:02PM 42.4667 -71.5667 56° Northeast 144 166 4,000 -153 Level KA90
01:03PM 42.5000 -71.5333 36° Northeast 130 150 3,700 -421 Descending KA90
01:04PM 42.4833 -71.4833 114° Southeast 148 170 3,200 -789 Descending KA90
01:05PM 42.4833 -71.4333 90° East 126 145 2,200 -762 Descending KA90
01:06PM 42.4833 -71.3833 90° East 114 131 1,600 -550 Descending KA90
01:07PM 42.4833 -71.3500 90° East 100 115 1,100 -513 Descending KA90
01:08PM 42.4833 -71.3167 90° East 90 104 600 -476 Descending KA90
01:10PM 42.4667 -71.2833 66° East  Level FlightAware Approximate